Time,TemperatureF,DewpointF,PressureIn,WindDirection,WindDirectionDegrees,WindSpeedMPH,WindSpeedGustMPH,Humidity,HourlyPrecipIn,Conditions,Clouds,dailyrainin,SolarRadiationWatts/m^2,SoftwareType,DateUTC
2013-03-21 00:02:00,41.0,27.0,-100.00,NNW,331,7.0,12.0,56,0.00,,,0.00,0.000000,,2013-03-21 04:02:00,
2013-03-21 00:23:00,41.0,27.0,-100.00,NNW,331,7.0,12.0,56,0.00,,,0.00,0.000000,,2013-03-21 04:23:00,
2013-03-21 00:33:00,41.0,27.0,-100.00,NNW,331,7.0,12.0,56,0.00,,,0.00,0.000000,,2013-03-21 04:33:00,
2013-03-21 00:43:00,41.0,27.0,-100.00,NNW,331,7.0,12.0,56,0.00,,,0.00,0.000000,,2013-03-21 04:43:00,
2013-03-21 00:53:00,41.0,27.0,-100.00,NNW,331,7.0,12.0,56,0.00,,,0.00,0.000000,,2013-03-21 04:53:00,
2013-03-21 01:02:00,39.0,25.0,-100.00,NNW,331,6.0,13.0,57,0.00,,,0.00,0.000000,,2013-03-21 05:02:00,
2013-03-21 01:22:00,39.0,25.0,-100.00,NNW,331,6.0,13.0,57,0.00,,,0.00,0.000000,,2013-03-21 05:22:00,
2013-03-21 01:33:00,39.0,25.0,-100.00,NNW,331,6.0,13.0,57,0.00,,,0.00,0.000000,,2013-03-21 05:33:00,
2013-03-21 01:44:00,39.0,25.0,-100.00,NNW,331,6.0,13.0,57,0.00,,,0.00,0.000000,,2013-03-21 05:44:00,
2013-03-21 01:52:00,39.0,25.0,-100.00,NNW,331,6.0,13.0,57,0.00,,,0.00,0.000000,,2013-03-21 05:52:00,
2013-03-21 02:02:00,38.0,24.0,-100.00,NNW,334,6.0,10.0,57,0.00,,,0.00,0.000000,,2013-03-21 06:02:00,
2013-03-21 02:23:00,38.0,24.0,-100.00,NNW,334,6.0,10.0,57,0.00,,,0.00,0.000000,,2013-03-21 06:23:00,
2013-03-21 02:32:00,38.0,24.0,-100.00,NNW,334,6.0,10.0,57,0.00,,,0.00,0.000000,,2013-03-21 06:32:00,
2013-03-21 02:42:00,38.0,24.0,-100.00,NNW,334,6.0,10.0,57,0.00,,,0.00,0.000000,,2013-03-21 06:42:00,
2013-03-21 02:52:00,38.0,24.0,-100.00,NNW,334,6.0,10.0,57,0.00,,,0.00,0.000000,,2013-03-21 06:52:00,
2013-03-21 03:02:00,36.0,23.0,-100.00,NW,321,5.0,7.0,58,0.00,,,0.00,0.000000,,2013-03-21 07:02:00,
2013-03-21 03:32:00,36.0,23.0,-100.00,NW,321,5.0,7.0,58,0.00,,,0.00,0.000000,,2013-03-21 07:32:00,
2013-03-21 03:43:00,36.0,23.0,-100.00,NW,321,5.0,7.0,58,0.00,,,0.00,0.000000,,2013-03-21 07:43:00,
2013-03-21 03:53:00,36.0,23.0,-100.00,NW,321,5.0,7.0,58,0.00,,,0.00,0.000000,,2013-03-21 07:53:00,
2013-03-21 04:02:00,35.0,22.0,-100.00,NW,324,4.0,9.0,59,0.00,,,0.00,0.000000,,2013-03-21 08:02:00,
2013-03-21 04:33:00,35.0,22.0,-100.00,NW,324,4.0,9.0,59,0.00,,,0.00,0.000000,,2013-03-21 08:33:00,
2013-03-21 04:43:00,35.0,22.0,-100.00,NW,324,4.0,9.0,59,0.00,,,0.00,0.000000,,2013-03-21 08:43:00,
2013-03-21 04:52:00,35.0,22.0,-100.00,NW,324,4.0,9.0,59,0.00,,,0.00,0.000000,,2013-03-21 08:52:00,
2013-03-21 05:02:00,33.0,21.0,-100.00,NW,321,4.0,7.0,60,0.00,,,0.00,0.000000,,2013-03-21 09:02:00,
2013-03-21 05:33:00,33.0,21.0,-100.00,NW,321,4.0,7.0,60,0.00,,,0.00,0.000000,,2013-03-21 09:33:00,
2013-03-21 05:43:00,33.0,21.0,-100.00,NW,321,4.0,7.0,60,0.00,,,0.00,0.000000,,2013-03-21 09:43:00,
2013-03-21 05:53:00,33.0,21.0,-100.00,NW,321,4.0,7.0,60,0.00,,,0.00,0.000000,,2013-03-21 09:53:00,
2013-03-21 06:02:00,31.0,18.0,-100.00,NW,322,6.0,9.0,58,0.00,,,0.00,0.000000,,2013-03-21 10:02:00,
2013-03-21 06:23:00,31.0,18.0,-100.00,NW,322,6.0,9.0,58,0.00,,,0.00,0.000000,,2013-03-21 10:23:00,
2013-03-21 06:34:00,31.0,18.0,-100.00,NW,322,6.0,9.0,58,0.00,,,0.00,0.000000,,2013-03-21 10:34:00,
2013-03-21 06:43:00,31.0,18.0,-100.00,NW,322,6.0,9.0,58,0.00,,,0.00,0.000000,,2013-03-21 10:43:00,
2013-03-21 06:53:00,31.0,18.0,-100.00,NW,322,6.0,9.0,58,0.00,,,0.00,0.000000,,2013-03-21 10:53:00,
2013-03-21 07:02:00,30.0,13.0,-100.00,NW,323,6.0,11.0,49,0.00,,,0.00,0.000000,,2013-03-21 11:02:00,
2013-03-21 07:33:00,30.0,13.0,-100.00,NW,323,6.0,11.0,49,0.00,,,0.00,0.000000,,2013-03-21 11:33:00,
2013-03-21 07:43:00,30.0,13.0,-100.00,NW,323,6.0,11.0,49,0.00,,,0.00,0.000000,,2013-03-21 11:43:00,
2013-03-21 07:53:00,30.0,13.0,-100.00,NW,323,6.0,11.0,49,0.00,,,0.00,0.000000,,2013-03-21 11:53:00,
2013-03-21 08:02:00,28.0,9.0,-100.00,NW,319,6.0,9.0,45,0.00,,,0.00,4.000000,,2013-03-21 12:02:00,
2013-03-21 08:33:00,28.0,9.0,-100.00,NW,319,6.0,9.0,45,0.00,,,0.00,4.000000,,2013-03-21 12:33:00,
2013-03-21 08:43:00,28.0,9.0,-100.00,NW,319,6.0,9.0,45,0.00,,,0.00,4.000000,,2013-03-21 12:43:00,
2013-03-21 08:53:00,28.0,9.0,-100.00,NW,319,6.0,9.0,45,0.00,,,0.00,4.000000,,2013-03-21 12:53:00,
2013-03-21 09:02:00,29.0,7.0,-100.00,NW,322,5.0,9.0,38,0.00,,,0.00,33.000000,,2013-03-21 13:02:00,
2013-03-21 09:33:00,29.0,7.0,-100.00,NW,322,5.0,9.0,38,0.00,,,0.00,33.000000,,2013-03-21 13:33:00,
2013-03-21 09:43:00,29.0,7.0,-100.00,NW,322,5.0,9.0,38,0.00,,,0.00,33.000000,,2013-03-21 13:43:00,
2013-03-21 09:53:00,29.0,7.0,-100.00,NW,322,5.0,9.0,38,0.00,,,0.00,33.000000,,2013-03-21 13:53:00,
2013-03-21 10:02:00,33.0,3.0,-100.00,NNW,328,7.0,13.0,27,0.00,,,0.00,198.000000,,2013-03-21 14:02:00,
2013-03-21 10:32:00,33.0,3.0,-100.00,NNW,328,7.0,13.0,27,0.00,,,0.00,198.000000,,2013-03-21 14:32:00,
2013-03-21 10:43:00,33.0,3.0,-100.00,NNW,328,7.0,13.0,27,0.00,,,0.00,198.000000,,2013-03-21 14:43:00,
2013-03-21 10:52:00,33.0,3.0,-100.00,NNW,328,7.0,13.0,27,0.00,,,0.00,198.000000,,2013-03-21 14:52:00,
2013-03-21 11:02:00,38.0,5.0,-100.00,NNW,334,6.0,14.0,25,0.00,,,0.00,613.000000,,2013-03-21 15:02:00,
2013-03-21 11:33:00,38.0,5.0,-100.00,NNW,334,6.0,14.0,25,0.00,,,0.00,613.000000,,2013-03-21 15:33:00,
2013-03-21 11:43:00,38.0,5.0,-100.00,NNW,334,6.0,14.0,25,0.00,,,0.00,613.000000,,2013-03-21 15:43:00,
2013-03-21 11:53:00,38.0,5.0,-100.00,NNW,334,6.0,14.0,25,0.00,,,0.00,613.000000,,2013-03-21 15:53:00,
2013-03-21 12:02:00,40.0,4.0,-100.00,NNW,330,8.0,14.0,22,0.00,,,0.00,811.000000,,2013-03-21 16:02:00,
2013-03-21 12:33:00,40.0,4.0,-100.00,NNW,330,8.0,14.0,22,0.00,,,0.00,811.000000,,2013-03-21 16:33:00,
2013-03-21 12:42:00,40.0,4.0,-100.00,NNW,330,8.0,14.0,22,0.00,,,0.00,811.000000,,2013-03-21 16:42:00,
2013-03-21 12:53:00,40.0,4.0,-100.00,NNW,330,8.0,14.0,22,0.00,,,0.00,811.000000,,2013-03-21 16:53:00,
2013-03-21 13:02:00,44.0,4.0,-100.00,NW,324,6.0,14.0,19,0.00,,,0.00,945.000000,,2013-03-21 17:02:00,
2013-03-21 13:33:00,44.0,4.0,-100.00,NW,324,6.0,14.0,19,0.00,,,0.00,945.000000,,2013-03-21 17:33:00,
2013-03-21 13:43:00,44.0,4.0,-100.00,NW,324,6.0,14.0,19,0.00,,,0.00,945.000000,,2013-03-21 17:43:00,
2013-03-21 13:53:00,44.0,4.0,-100.00,NW,324,6.0,14.0,19,0.00,,,0.00,945.000000,,2013-03-21 17:53:00,
2013-03-21 14:02:00,47.0,7.0,-100.00,NNW,332,6.0,12.0,19,0.00,,,0.00,1012.000000,,2013-03-21 18:02:00,
2013-03-21 14:23:00,47.0,7.0,-100.00,NNW,332,6.0,12.0,19,0.00,,,0.00,1012.000000,,2013-03-21 18:23:00,
2013-03-21 14:32:00,47.0,7.0,-100.00,NNW,332,6.0,12.0,19,0.00,,,0.00,1012.000000,,2013-03-21 18:32:00,
2013-03-21 14:43:00,47.0,7.0,-100.00,NNW,332,6.0,12.0,19,0.00,,,0.00,1012.000000,,2013-03-21 18:43:00,
2013-03-21 14:52:00,47.0,7.0,-100.00,NNW,332,6.0,12.0,19,0.00,,,0.00,1012.000000,,2013-03-21 18:52:00,
2013-03-21 15:02:00,46.0,6.0,-100.00,NNW,335,7.0,15.0,19,0.00,,,0.00,926.000000,,2013-03-21 19:02:00,
2013-03-21 15:23:00,46.0,6.0,-100.00,NNW,335,7.0,15.0,19,0.00,,,0.00,926.000000,,2013-03-21 19:23:00,
2013-03-21 15:32:00,46.0,6.0,-100.00,NNW,335,7.0,15.0,19,0.00,,,0.00,926.000000,,2013-03-21 19:32:00,
2013-03-21 15:43:00,46.0,6.0,-100.00,NNW,335,7.0,15.0,19,0.00,,,0.00,926.000000,,2013-03-21 19:43:00,
2013-03-21 15:53:00,46.0,6.0,-100.00,NNW,335,7.0,15.0,19,0.00,,,0.00,926.000000,,2013-03-21 19:53:00,
2013-03-21 16:02:00,47.0,7.0,-100.00,NW,316,7.0,15.0,19,0.00,,,0.00,893.000000,,2013-03-21 20:02:00,
2013-03-21 16:33:00,47.0,7.0,-100.00,NW,316,7.0,15.0,19,0.00,,,0.00,893.000000,,2013-03-21 20:33:00,
2013-03-21 16:43:00,47.0,7.0,-100.00,NW,316,7.0,15.0,19,0.00,,,0.00,893.000000,,2013-03-21 20:43:00,
2013-03-21 16:53:00,47.0,7.0,-100.00,NW,316,7.0,15.0,19,0.00,,,0.00,893.000000,,2013-03-21 20:53:00,
2013-03-21 17:02:00,46.0,7.0,-100.00,NW,318,8.0,17.0,20,0.00,,,0.00,733.000000,,2013-03-21 21:02:00,
2013-03-21 17:23:00,46.0,7.0,-100.00,NW,318,8.0,17.0,20,0.00,,,0.00,733.000000,,2013-03-21 21:23:00,
2013-03-21 17:33:00,46.0,7.0,-100.00,NW,318,8.0,17.0,20,0.00,,,0.00,733.000000,,2013-03-21 21:33:00,
2013-03-21 17:43:00,46.0,7.0,-100.00,NW,318,8.0,17.0,20,0.00,,,0.00,733.000000,,2013-03-21 21:43:00,
2013-03-21 17:53:00,46.0,7.0,-100.00,NW,318,8.0,17.0,20,0.00,,,0.00,733.000000,,2013-03-21 21:53:00,
2013-03-21 18:02:00,44.0,8.0,-100.00,NW,326,8.0,14.0,22,0.00,,,0.00,191.000000,,2013-03-21 22:02:00,
2013-03-21 18:34:00,44.0,8.0,-100.00,NW,326,8.0,14.0,22,0.00,,,0.00,191.000000,,2013-03-21 22:34:00,
2013-03-21 18:43:00,44.0,8.0,-100.00,NW,326,8.0,14.0,22,0.00,,,0.00,191.000000,,2013-03-21 22:43:00,
2013-03-21 18:53:00,44.0,8.0,-100.00,NW,326,8.0,14.0,22,0.00,,,0.00,191.000000,,2013-03-21 22:53:00,
2013-03-21 19:02:00,43.0,8.0,-100.00,NW,323,7.0,14.0,23,0.00,,,0.00,41.000000,,2013-03-21 23:02:00,
2013-03-21 19:22:00,43.0,8.0,-100.00,NW,323,7.0,14.0,23,0.00,,,0.00,41.000000,,2013-03-21 23:22:00,
2013-03-21 19:33:00,43.0,8.0,-100.00,NW,323,7.0,14.0,23,0.00,,,0.00,41.000000,,2013-03-21 23:33:00,
2013-03-21 19:43:00,43.0,8.0,-100.00,NW,323,7.0,14.0,23,0.00,,,0.00,41.000000,,2013-03-21 23:43:00,
2013-03-21 19:53:00,43.0,8.0,-100.00,NW,323,7.0,14.0,23,0.00,,,0.00,41.000000,,2013-03-21 23:53:00,
2013-03-21 20:02:00,40.0,9.0,-100.00,NW,324,5.0,10.0,27,0.00,,,0.00,13.000000,,2013-03-22 00:02:00,
2013-03-21 20:22:00,40.0,9.0,-100.00,NW,324,5.0,10.0,27,0.00,,,0.00,13.000000,,2013-03-22 00:22:00,
2013-03-21 20:32:00,40.0,9.0,-100.00,NW,324,5.0,10.0,27,0.00,,,0.00,13.000000,,2013-03-22 00:32:00,
2013-03-21 20:42:00,40.0,9.0,-100.00,NW,324,5.0,10.0,27,0.00,,,0.00,13.000000,,2013-03-22 00:42:00,
2013-03-21 20:52:00,40.0,9.0,-100.00,NW,324,5.0,10.0,27,0.00,,,0.00,13.000000,,2013-03-22 00:52:00,
2013-03-21 21:02:00,38.0,9.0,-100.00,NNW,344,3.0,8.0,30,0.00,,,0.00,0.000000,,2013-03-22 01:02:00,
2013-03-21 21:33:00,38.0,9.0,-100.00,NNW,344,3.0,8.0,30,0.00,,,0.00,0.000000,,2013-03-22 01:33:00,
2013-03-21 21:43:00,38.0,9.0,-100.00,NNW,344,3.0,8.0,30,0.00,,,0.00,0.000000,,2013-03-22 01:43:00,
2013-03-21 21:53:00,38.0,9.0,-100.00,NNW,344,3.0,8.0,30,0.00,,,0.00,0.000000,,2013-03-22 01:53:00,
2013-03-21 22:02:00,37.0,11.0,-100.00,NNW,327,3.0,5.0,33,0.00,,,0.00,0.000000,,2013-03-22 02:02:00,
2013-03-21 22:32:00,37.0,11.0,-100.00,NNW,327,3.0,5.0,33,0.00,,,0.00,0.000000,,2013-03-22 02:32:00,
2013-03-21 22:43:00,37.0,11.0,-100.00,NNW,327,3.0,5.0,33,0.00,,,0.00,0.000000,,2013-03-22 02:43:00,
2013-03-21 22:53:00,37.0,11.0,-100.00,NNW,327,3.0,5.0,33,0.00,,,0.00,0.000000,,2013-03-22 02:53:00,
2013-03-21 23:02:00,35.0,9.0,-100.00,NW,319,3.0,4.0,33,0.00,,,0.00,0.000000,,2013-03-22 03:02:00,
2013-03-21 23:33:00,35.0,9.0,-100.00,NW,319,3.0,4.0,33,0.00,,,0.00,0.000000,,2013-03-22 03:33:00,
2013-03-21 23:43:00,35.0,9.0,-100.00,NW,319,3.0,4.0,33,0.00,,,0.00,0.000000,,2013-03-22 03:43:00,
2013-03-21 23:53:00,35.0,9.0,-100.00,NW,319,3.0,4.0,33,0.00,,,0.00,0.000000,,2013-03-22 03:53:00,